Weather in Mecha

Russia / Perm Krai     57°15′53″N   57°30′04″E
temp.,
°C
wind,
m/s
gust,
m/s
humid.,
%
clouds,
%
prec.,
mm/h
press.,
hPa
HPBL,
m
18 august, thu
thu1823:00+13n268867 0.0 1024197
02:00+10n22964 0.0 102414
05:00+8ene22940 0.0 102513
08:00+11e23740 0.0 1026165
11:00+16e23460 0.0 10261080
14:00+19nne34375 0.0 10262151
17:00+19ne4539100 0.0 10262029
20:00+14ene23615 0.0 102736
19 august, fri
fri1923:00+9e22755 0.0 103014
02:00+7ene22860 0.0 103111
05:00+6ese11876 0.0 103310
08:00+10ne11735 0.0 1034133
11:00+16nnw2356100 0.0 1033691
14:00+19nnw45499 0.0 10321219
17:00+21nnw56435 0.0 10311515
20:00+16nnw34635 0.0 103047
20 august, sat
sat2023:00+13nw22665 0.0 103112
02:00+12nw22725 0.0 103111
05:00+12wnw227743 0.0 103135
08:00+15nw497134 0.0 1030261
11:00+21nnw696027 0.0 1029613
14:00+25nnw68475 0.0 10281470
17:00+26nnw69465 0.0 10271946
20:00+22nnw4105938 0.1 1026357
21 august, sun
sun2123:00+16nnw229136 1.9 102719
02:00+15n229226 0.0 102816
05:00+14nne119456 0.1 102811
08:00+16ne128938 0.1 1029130
11:00+20ene237294 0.1 1029630
14:00+20ene225886 0.0 1028565
17:00+22n3453100 0.0 10281036
20:00+18ne227115 0.0 102811
22 august, mon
mon2223:00+14ese117769 0.0 102810
02:00+13se117580 0.0 102910
05:00+12se117659 0.0 102910
08:00+15ese11645 0.0 1030108
11:00+21e22495 0.0 1030640
14:00+24ene23425 0.0 10291384
17:00+24ene33405 0.0 10291576
20:00+19ese11584 0.0 102911